Regional Weather Roundup
Issued by NWS

Home | Current Version | Previous Version | Graphics & Text | Print | Product List | Glossary On
Versions: 1 2 3 4 5 6 7 8 9 10 11 12 13 14 15 16 17 18 19 20 21 22 23 24 25 26 27
000
ASUS45 KTFX 190110
RWRMT
MONTANA REGIONAL WEATHER ROUNDUP
NATIONAL WEATHER SERVICE GREAT FALLS MT
600 PM MST THU JAN 18 2018

NOTE: "FAIR" INDICATES FEW OR NO CLOUDS BELOW 12000 FEET WITH NO
SIGNIFICANT WEATHER AND/OR OBSTRUCTIONS TO VISIBILITY.

MTZ001>007-043-190200-
WEST OF THE DIVIDE

CITY           SKY/WX    TMP DP  RH WIND       PRES   REMARKS
KALISPELL      CLOUDY    37  34  89 S6        29.73F
MISSOULA       LGT RAIN  35  33  92 NW5       29.79S
BUTTE          CLOUDY    33  31  92 VRB7      29.73R WCI  27
MULLAN PASS    LGT SNOW  26  25  96 VRB3      29.72S VSB 3/4
ANACONDA         N/A     34  32  93 N5        29.75S
DEER LODGE       N/A     34  34 100 SE5       29.77R
EUREKA           N/A     39  27  60 MISG      29.71R
HAMILTON         N/A     37  36  93 S7        29.76F
RONAN            N/A     36  34  93 SE10      29.79S WCI  28
$$

MTZ008-052>055-190200-
SOUTHWEST MONTANA

CITY           SKY/WX    TMP DP  RH WIND       PRES   REMARKS
BOZEMAN        FAIR      45  29  53 SW8       29.70F
DILLON         MOCLDY    36  28  73 S20G28    29.70F WCI  25
ENNIS          CLOUDY    43  28  56 S35G41    29.80F
W YELLOWSTONE  FAIR      36  28  75 SW9G16    29.90F WCI  29
THREE FORKS      N/A     47  32  56 S33       29.69F
$$

MTZ009-010-012-014-046-048-049-054-190200-
EAST SLOPES AND CENTRAL MONTANA

CITY           SKY/WX    TMP DP  RH WIND       PRES   REMARKS
CUT BANK       FAIR      36  31  82 W14       29.65R WCI  27
GREAT FALLS    CLOUDY    42  32  67 SW15      29.69S
MALMSTROM AFB  DRIZZLE   40  34  79 SW12      29.70S
HELENA         CLOUDY    38  33  82 W7        29.74R
AUGUSTA        CLOUDY    36  32  86 SW7       29.67S WCI  30
BOWMANS CRNR   CLOUDY    35  31  87 S8        29.68S WCI  29
CHOTEAU          N/A     39  32  75 SW6       29.69S
FAIRFIELD      CLOUDY    39  31  75 S15       29.67S WCI  30
POWER          CLOUDY    37  31  80 SW10      29.67F WCI  29
RAYNESFORD     LGT RAIN  44  32  61 W14G20    29.71R
ULM            CLOUDY    40  33  76 SW12      29.70S
WHITE SULPHUR    N/A     39  30  70 VRB3      29.69S
$$

MTZ011-013-016-021-045-047-050-051-190200-
NORTH CENTRAL MONTANA

CITY           SKY/WX    TMP DP  RH WIND       PRES   REMARKS
HAVRE          CLOUDY    37  32  82 SW23      29.62F WCI  26
LEWISTOWN      MOCLDY    37  32  82 SW3       29.69F
N BAR RANCH    FAIR      39  30  70 CALM      29.72F
CHINOOK          N/A     41  32  70 NW6       29.63S
DENTON         MOCLDY    37  32  82 MISG      29.65F
GEYSER         LGT RAIN  40  33  76 W14       29.69S
GRASS RANGE    MOCLDY    39  31  75 S6        29.66F
STANFORD       MOCLDY    41  33  72 NW14      29.68F
WINIFRED       MOCLDY    41  32  70 W3        29.67F
$$

MTZ017>020-022>027-061-062-190200-
NORTHEAST MONTANA

CITY           SKY/WX    TMP DP  RH WIND       PRES   REMARKS
GLASGOW        CLOUDY    31  27  85 SE7       29.63F WCI  24
GLENDIVE       FAIR      33  26  75 S9        29.69F WCI  25
JORDAN           N/A     36  31  82 SW6       29.66F WCI  31
MALTA          CLOUDY    34  28  80 SW3       29.64F
SIDNEY         FAIR      35  28  75 SW15      29.66F WCI  25
WOLF POINT     CLOUDY    31  23  72 NW3       29.65F
PLENTYWOOD       N/A     37  28  70 CALM      29.58F
POPLAR           N/A     32  25  74 W8        29.65F WCI  25
$$

MTZ028>42-056>058-190200-
SOUTHCENTRAL AND SOUTHEAST MONTANA

CITY           SKY/WX    TMP DP  RH WIND       PRES   REMARKS
BAKER          FAIR      41  29  62 SW13      29.70F
BILLINGS       MOCLDY    44  26  49 SW15      29.70F
LIVINGSTON     FAIR      51  31  46 SW40G54   29.68F
MILES CITY     FAIR      34  26  72 S3        29.70S
BIG TIMBER     CLEAR     46  30  53 W10       29.72F
FORSYTH          N/A     32  27  80 CALM      29.70R
HARLOWTON      MOCLDY    35  28  74 NE3       29.67F
LAUREL           N/A     43  27  52 SW18G26   29.71F
$$

REGIONAL REPORTS...DAKOTAS

CITY           SKY/WX    TMP DP  RH WIND       PRES   REMARKS
WILLISTON      FAIR      39  29  67 SW14      29.64S WCI  31
MINOT          FAIR      41  29  62 SW18      29.58S
DICKINSON      FAIR      36  29  75 W10       29.65S WCI  28
BEACH          FAIR      41  27  56 W17       29.71R
CROSBY         FAIR      36  30  80 SW21G26   29.55S WCI  24
TIOGA          FAIR      36  32  87 SW13      29.60F WCI  27
WATFORD CITY   FAIR      37  30  75 SW10      29.64S WCI  30
BISMARCK       FAIR      31  26  82 CALM      29.67F
GRAND FORKS    MOCLDY    24  21  88 S10       29.64F WCI  14
FARGO          FAIR      29  24  82 S10       29.69F WCI  20
BUFFALO SD       N/A     41  28  60 W6        29.66F
RAPID CITY     FAIR      40  25  55 CALM      29.74F
$$

REGIONAL REPORTS...WYOMING/IDAHO/WASHINGTON

CITY           SKY/WX    TMP DP  RH WIND       PRES   REMARKS
GILLETTE       FAIR      46  30  53 SW22G29   29.76S
SHERIDAN       FAIR      38  28  67 N7        29.74S
BUFFALO WY     FAIR      50  23  34 W13       29.77F
CODY           FAIR      32  24  72 SE3       29.82F
YELLOWSTONE LA   N/A     29  26  89 VRB3      29.97F
IDAHO FALLS    MOCLDY    36  32  85 CALM      29.91F
SALMON         CLOUDY    35  29  78 N3        29.68F
BOISE          CLOUDY    45  37  73 N12       29.86F
SPOKANE        CLOUDY    37  36  96 S9        29.79S WCI  30
$$

REGIONAL REPORTS...ALBERTA

CITY           SKY/WX    TMP DP  RH WIND       PRES   REMARKS
CALGARY        PTCLDY    36  25  64 W14G26    29.48R WCI  27
CARDSTON         N/A     34  32  93 S10G17      N/A  WCI  26
EDMONTON       PTCLDY    37  23  56 SW6       29.36R
FORT MCMURRAY  CLOUDY    34  30  86 W3        29.22S
HIGH LEVEL     LGT SNOW  27  27 100 CALM      29.20S FOG
LETHBRIDGE     MOCLDY    37  28  70 SW20      29.58F WCI  27
LLOYDMINSTER   PTCLDY    34  28  80 W12       29.31R WCI  25
MEDICINE HAT   CLOUDY    39  32  75 SW25G32   29.51F WCI  28
MILK RIVER       N/A     37  32  81 W17         N/A  WCI  28
PEACE RIVER    MOCLDY    36  28  75 W8        29.28R WCI  29
PINCHER CREEK  CLOUDY    37  19  48 W24G33    29.60R WCI  26
WATERTON GATE    N/A     34  28  80 SW10        N/A  WCI  26
$$

REGIONAL REPORTS...SASKATCHEWAN

CITY           SKY/WX    TMP DP  RH WIND       PRES   REMARKS
CYPRESS HILLS    N/A     37  28  70 W17G23      N/A  WCI  28
ESTEVAN        PTCLDY    34  28  80 SW10      29.51F WCI  26
MOOSE JAW        N/A     43  30  61 W23G29      N/A
PRINCE ALBERT  PTCLDY    21  21 100 CALM      29.27R
REGINA         MOCLDY    37  30  75 SW12      29.46S WCI  30
ROCKGLEN         N/A     36  30  80 W21         N/A  WCI  24
SASKATOON      MOCLDY    36  32  87 SW14      29.34S WCI  27
SWIFT CURRENT  CLOUDY    37  32  81 SW12      29.48S WCI  30
VAL MARIE        N/A     37  30  75 W14         N/A  WCI  29
$$




USA.gov is the U.S. government's official web portal to all federal, state and local government web resources and services.